sat.trackr.live / text

‹ back to catalog

STARLINK-35787

NORAD 66978 · 2025-288V

PAYLOAD ACTIVE UNKNOWN

§ Identity

Operator
Country
US
Launch date
2025-12-08
Launch site
AFETR
Launch vehicle
Mass (kg)
RCS (m²)

Purposes: comms

External: N2YO · Heavens-Above · Gunter

§ Orbital elements

Epoch: 2026-05-25T03:30:09.698112Z

Period
94.27 min
Inclination
43.0033°
Eccentricity
0.0001149
Mean motion
15.27577989 rev/d
Perigee alt
482.3 km
Apogee alt
483.8 km
Semi-major
6,861.2 km
B*
6.7179e-4
RAAN
311.3905°
Arg perigee
257.8235°
Mean anomaly
102.2488°
Rev number
2,698

§ Raw data

STARLINK-357871 66978U 25288V   26145.14594558  .00018269  00000+0  67179-3 0  99982 66978  43.0033 311.3905 0001149 257.8235 102.2488 15.27577989 26980

JSON: /api/v1/satellites/66978 · /tle

For live sub-satellite position, see the globe view (requires WebGL).

§ Visibility from observer

Set your observer location to see the next 7 days of passes ≥ 10°. The values pass through the URL so the page stays shareable.

No JS? Fill the form by hand. The geolocation button needs JavaScript.